Weather History for KLAM - February, 2013

Change the Weather History Date:

Friday, February 15, 2013

  Actual Average Record
Temperature  
Mean Temperature 33 °F -  
Max Temperature 41 °F 42 °F 64 °F (1957)
Min Temperature 25 °F 22 °F 3 °F (1964)
Degree Days  
Heating Degree Days 32    
Moisture  
Dew Point 12 °F    
Average Humidity 50    
Maximum Humidity 92    
Minimum Humidity 18    
Precipitation  
Precipitation 0.00 in - - ()
Sea Level Pressure  
Sea Level Pressure 30.27 in    
Wind  
Wind Speed 3 mph (North)    
Max Wind Speed 24 mph    
Max Gust Speed 38 mph    
Visibility 10 miles    
Events      
Averages and records for this station are not official NWS values.
T = Trace of Precipitation, MM = Missing Value Source: NWS Daily Summary

Daily Weather History Graph

Daily Weather History Graph

Search for Another Location

Airport or City:

Trip Planner

Search our weather history database for the weather conditions in past years. The results will help you decide how hot, cold, wet, or windy it might be!

Date:

Astronomy

Feb. 15, 2013 Rise Set
Actual Time 6:51 AM MST 5:47 PM MST
Civil Twilight 6:25 AM MST 6:13 PM MST
Nautical Twilight 5:55 AM MST 6:43 PM MST
Astronomical Twilight 5:25 AM MST 7:12 PM MST
Moon 9:42 AM MST (2/15) 11:36 PM MST (2/15)
Length of Visible Light 11h 47m
Length of Day
10h 55m
Waxing Crescent, 31% of the Moon is Illuminated
Feb 15
Waxing Crescent
Feb 17
First Quarter
Feb 25
Full
Mar 4
Last Quarter
Mar 11
New

Hourly Weather History & Observations

Time (MST) Temp. Windchill Dew Point Humidity Pressure Visibility Wind Dir Wind Speed Gust Speed Precip Events Conditions
12:15 AM 32.2 °F - 18.7 °F 58% 30.22 in 10.0 mi Calm Calm - N/A   Clear
12:55 AM 31.8 °F - 21.9 °F 67% 30.23 in 10.0 mi Calm Calm - N/A   Clear
1:15 AM 31.1 °F - 22.8 °F 71% 30.23 in 10.0 mi Calm Calm - N/A   Clear
1:55 AM 29.8 °F - 21.9 °F 72% 30.23 in 10.0 mi Calm Calm - N/A   Scattered Clouds
2:15 AM 28.9 °F - 22.8 °F 78% 30.24 in 10.0 mi Calm Calm - N/A   Scattered Clouds
2:35 AM 28.9 °F - 23.0 °F 78% 30.24 in 10.0 mi Calm Calm - N/A   Scattered Clouds
2:55 AM 28.8 °F - 23.7 °F 81% 30.24 in 10.0 mi Calm Calm - N/A   Overcast
3:15 AM 28.6 °F - 24.4 °F 84% 30.24 in 10.0 mi Calm Calm - N/A   Overcast
3:35 AM 28.4 °F - 24.3 °F 84% 30.25 in 10.0 mi Calm Calm - N/A   Overcast
3:55 AM 28.2 °F - 23.7 °F 83% 30.24 in 10.0 mi Calm Calm - N/A   Overcast
4:15 AM 28.0 °F - 23.9 °F 84% 30.24 in 10.0 mi Calm Calm - N/A   Overcast
4:35 AM 27.9 °F - 23.7 °F 84% 30.25 in 10.0 mi Calm Calm - N/A   Overcast
4:55 AM 27.9 °F - 23.7 °F 84% 30.24 in 10.0 mi Calm Calm - N/A   Overcast
5:15 AM 27.7 °F - 23.2 °F 83% 30.24 in 10.0 mi Calm Calm - N/A   Overcast
5:35 AM 27.1 °F - 23.4 °F 86% 30.24 in 10.0 mi Calm Calm - N/A   Scattered Clouds
5:55 AM 26.6 °F - 23.5 °F 88% 30.24 in 10.0 mi Calm Calm - N/A   Scattered Clouds
6:15 AM 26.6 °F - 23.2 °F 87% 30.24 in 10.0 mi Calm Calm - N/A   Clear
6:35 AM 26.2 °F - 23.0 °F 88% 30.24 in 10.0 mi Calm Calm - N/A   Clear
6:55 AM 25.5 °F - 22.8 °F 89% 30.24 in 10.0 mi Calm Calm - N/A   Clear
7:15 AM 25.2 °F - 23.2 °F 92% 30.24 in 10.0 mi Calm Calm - N/A   Clear
7:35 AM 25.7 °F - 23.5 °F 92% 30.25 in 10.0 mi Calm Calm - N/A   Clear
7:55 AM 26.6 °F - 23.5 °F 88% 30.25 in 10.0 mi Calm Calm - N/A   Clear
8:15 AM 26.6 °F - 23.7 °F 89% 30.26 in 10.0 mi Calm Calm - N/A   Clear
8:35 AM 27.3 °F - 23.7 °F 86% 30.27 in 10.0 mi Calm Calm - N/A   Clear
8:55 AM 28.6 °F - 23.9 °F 83% 30.27 in 10.0 mi Calm Calm - N/A   Clear
9:15 AM 29.1 °F - 22.8 °F 77% 30.28 in 10.0 mi Calm Calm - N/A   Scattered Clouds
9:35 AM 28.9 °F - 22.1 °F 76% 30.28 in 10.0 mi Calm Calm - N/A   Scattered Clouds
9:55 AM 29.7 °F 26.1 °F 21.9 °F 73% 30.29 in 10.0 mi North 3.5 mph - N/A   Scattered Clouds
10:15 AM 30.2 °F - 21.7 °F 71% 30.28 in 10.0 mi Calm Calm - N/A   Scattered Clouds
10:55 AM 33.1 °F 30.0 °F 21.6 °F 63% 30.28 in 10.0 mi East 3.5 mph - N/A   Clear
11:15 AM 34.5 °F 27.3 °F 20.7 °F 57% 30.28 in 10.0 mi NE 9.2 mph - N/A   Scattered Clouds
11:35 AM 34.0 °F 28.8 °F 20.7 °F 58% 30.27 in 10.0 mi East 5.8 mph - N/A   Scattered Clouds
11:55 AM 35.1 °F - 20.5 °F 55% 30.27 in 10.0 mi Calm Calm - N/A   Clear
12:15 PM 36.3 °F 31.6 °F 18.9 °F 49% 30.25 in 10.0 mi East 5.8 mph - N/A   Clear
12:35 PM 38.1 °F 34.6 °F 17.8 °F 44% 30.25 in 10.0 mi East 4.6 mph - N/A   Scattered Clouds
12:55 PM 39.2 °F 29.0 °F -1.3 °F 18% 30.24 in 10.0 mi NNW 21.9 mph 32.2 mph N/A   Clear
1:15 PM 39.7 °F 32.3 °F 1.0 °F 20% 30.23 in 10.0 mi North 12.7 mph 24.2 mph N/A   Clear
1:35 PM 39.7 °F 30.3 °F 0.3 °F 19% 30.23 in 10.0 mi NNW 19.6 mph 31.1 mph N/A   Clear
1:55 PM 39.6 °F 30.3 °F -0.6 °F 19% 30.22 in 10.0 mi NNW 18.4 mph 38.0 mph N/A   Clear
2:15 PM 40.1 °F 31.0 °F 1.0 °F 20% 30.23 in 10.0 mi NNW 18.4 mph 26.5 mph N/A   Clear
2:35 PM 40.1 °F 31.0 °F 0.1 °F 19% 30.23 in 10.0 mi NNW 18.4 mph 29.9 mph N/A   Clear
2:55 PM 40.1 °F 31.0 °F 0.1 °F 19% 30.23 in 10.0 mi NNW 18.4 mph 25.3 mph N/A   Clear
3:15 PM 40.1 °F 29.7 °F 0.9 °F 19% 30.22 in 10.0 mi NNW 24.2 mph 33.4 mph N/A   Clear
3:35 PM 40.3 °F 31.3 °F 0.3 °F 19% 30.23 in 10.0 mi North 18.4 mph 28.8 mph N/A   Clear
3:55 PM 40.5 °F 31.5 °F 0.3 °F 19% 30.23 in 10.0 mi NNW 18.4 mph 25.3 mph N/A   Clear
4:15 PM 41.0 °F 32.8 °F -0.0 °F 18% 30.24 in 10.0 mi North 16.1 mph 26.5 mph N/A   Clear
4:35 PM 41.0 °F 35.2 °F 0.5 °F 18% 30.25 in 10.0 mi NNW 9.2 mph 21.9 mph N/A   Clear
4:55 PM 40.8 °F 35.0 °F 0.7 °F 19% 30.26 in 10.0 mi North 9.2 mph 16.1 mph N/A   Clear
5:15 PM 40.5 °F 35.8 °F -0.4 °F 18% 30.26 in 10.0 mi North 6.9 mph - N/A   Clear
5:35 PM 39.9 °F 35.8 °F 3.2 °F 22% 30.27 in 10.0 mi NW 5.8 mph - N/A   Clear
5:55 PM 39.4 °F 33.8 °F 2.3 °F 21% 30.27 in 10.0 mi NNW 8.1 mph 17.3 mph N/A   Clear
6:15 PM 38.8 °F 33.2 °F 2.7 °F 22% 30.28 in 10.0 mi North 8.1 mph - N/A   Clear
6:35 PM 38.7 °F 35.2 °F 2.7 °F 22% 30.28 in 10.0 mi North 4.6 mph - N/A   Clear
6:55 PM 38.1 °F - 3.2 °F 23% 30.29 in 10.0 mi Calm Calm - N/A   Clear
7:15 PM 38.1 °F - 3.0 °F 23% 30.30 in 10.0 mi Calm Calm - N/A   Clear
7:35 PM 37.4 °F - 3.2 °F 24% 30.30 in 10.0 mi Calm Calm - N/A   Clear
7:55 PM 37.2 °F - 3.6 °F 24% 30.30 in 10.0 mi Calm Calm - N/A   Clear
8:15 PM 36.0 °F 31.1 °F 4.8 °F 27% 30.31 in 10.0 mi NNE 5.8 mph - N/A   Clear
8:35 PM 35.1 °F 30.1 °F 4.1 °F 27% 30.32 in 10.0 mi NNE 5.8 mph - N/A   Clear
8:55 PM 34.3 °F 27.0 °F 1.9 °F 25% 30.33 in 10.0 mi North 9.2 mph 17.3 mph N/A   Clear
9:15 PM 32.7 °F 25.7 °F 2.3 °F 28% 30.34 in 10.0 mi NNW 8.1 mph - N/A   Clear
9:35 PM 32.5 °F 25.5 °F 1.9 °F 27% 30.34 in 10.0 mi NNW 8.1 mph - N/A   Clear
9:55 PM 32.5 °F - 1.4 °F 27% 30.35 in 10.0 mi Calm Calm - N/A   Clear
10:15 PM 32.0 °F - 1.8 °F 28% 30.36 in 10.0 mi Calm Calm - N/A   Clear
10:35 PM 32.0 °F - 1.6 °F 27% 30.37 in 10.0 mi Calm Calm - N/A   Clear
10:55 PM 32.0 °F 28.7 °F 2.1 °F 28% 30.37 in 10.0 mi North 3.5 mph - N/A   Clear
11:15 PM 32.0 °F 28.7 °F 2.3 °F 28% 30.36 in 10.0 mi North 3.5 mph - N/A   Clear
11:35 PM 31.1 °F - 2.7 °F 30% 30.37 in - Calm Calm - N/A   Clear
11:55 PM 31.1 °F 25.4 °F 3.0 °F 30% 30.37 in - NNW 5.8 mph - N/A   Clear